User: anonymous   Login
Location: Boiro
(42.6475°N, 8.8834°W)
Time: 05:50:55
(UTC+01:00)
Language:

RS-44 - Orbit

View from above orbital plane
View from above orbital plane
View from above satellite
View from above satellite

Ground track
Ground track

The orbit data is extracted from the following two-line orbital elements,

1 44909U 19096E   22026.83716334  .00000005  00000-0 -17910-4 0  9996
2 44909  82.5238 324.3790 0216451 291.0061  66.8007 12.79712012 97434
Epoch (UTC): 26 January 2022 20:05:30
Eccentricity: 0.0216451
inclination: 82.5238°
perigee height: 1175 km
apogee height: 1510 km
right ascension of ascending node: 324.3790°
argument of perigee: 291.0061°
revolutions per day: 12.79712012
mean anomaly at epoch: 66.8007°
orbit number at epoch: 9743

The dashed part of the orbit path shows where the satellite is in the earth's shadow,  

DLR